Location: Skalnate Pleso
(49.1889°N, 20.2450°E)
Time: 10:11:44
(UTC+01:00)

CZ-4B R/B - Pass Details

Date: 19 November 2019
Orbit: 498 x 646 km, 97.7° (Epoch: 06 December)

Event Time Altitude Azimuth Distance (km) Brightness Sun altitude
Rises 04:38:37 0° 11° (N) 2,966 7.6 -21.9°
Reaches altitude 10° 04:40:51 10° 9° (N) 2,057 6.8 -21.5°
Maximum altitude 04:45:20 68° 287° (WNW) 699 4.0 -20.8°
Drops below altitude 10° 04:49:45 10° 205° (SSW) 2,028 6.5 -20.1°
Sets 04:51:56 0° 203° (SSW) 2,921 7.4 -19.7°
